sat.trackr.live / text

‹ back to catalog

STARLINK-33622

NORAD 63066 · 2025-035Q

PAYLOAD ACTIVE UNKNOWN

§ Identity

Operator
Country
US
Launch date
2025-02-21
Launch site
AFETR
Launch vehicle
Mass (kg)
RCS (m²)

Purposes: comms

External: N2YO · Heavens-Above · Gunter

§ Orbital elements

Epoch: 2026-09-20T00:33:56.937888Z

Period
94.27 min
Inclination
43.0031°
Eccentricity
0.0001928
Mean motion
15.27600106 rev/d
Perigee alt
481.7 km
Apogee alt
484.3 km
Semi-major
6,861.1 km
B*
5.4065e-4
RAAN
129.3158°
Arg perigee
262.3114°
Mean anomaly
97.7519°
Rev number
8,945

§ Raw data

STARLINK-336221 63066U 25035Q   26263.02357567  .00014654  00000+0  54065-3 0  99922 63066  43.0031 129.3158 0001928 262.3114  97.7519 15.27600106 89454

JSON: /api/v1/satellites/63066 · /tle

For live sub-satellite position, see the globe view (requires WebGL).

§ Visibility from observer

Set your observer location to see the next 7 days of passes ≥ 10°. The values pass through the URL so the page stays shareable.

No JS? Fill the form by hand. The geolocation button needs JavaScript.